Погода в Судоверфи

Россия / Ярославская область     58°06′45″N   38°38′53″E
темп.,
°C
ветер,
м/с
пор.,
м/с
влажн.,
%
обл.,
%
осадки,
мм/ч
давл.,
гПа
погр.,
м
8 марта, пн
пн800:00−13зюз239031 0.0 99232
03:00−13з229658 0.1 99222
06:00−14сз129986 0.0 99420
09:00−13сз369588 0.1 996196
12:00−8ссз479099 0.1 1000644
15:00−9ссз5888100 0.3 1002748
18:00−10ссз5992100 0.2 1006548
21:00−12ссз4994100 0.3 1009390
9 марта, вт
вт900:00−17ссз379796 0.1 1011156
03:00−20ссз359987 0.1 1013121
06:00−22ссз359993 0.0 1014110
09:00−22с369690 0.1 1017243
12:00−20ссз459473 0.0 1018292
15:00−19ссз479377 0.0 1019356
18:00−20ссз389692 0.0 1020210
21:00−22с359996 0.0 1023114
10 марта, ср
ср1000:00−25с239830 0.0 102557
03:00−27с239814 0.0 102644
06:00−28с23970 0.0 102731
09:00−24ссз23940 0.0 1028148
12:00−20ссз24890 0.0 1028275
15:00−17сз24840 0.0 1028322
18:00−20ссз129113 0.0 102820
21:00−21зсз229832 0.0 102920
11 марта, чт
чт1100:00−21зсз2210075 0.0 102920
03:00−21з2210087 0.1 103020
06:00−21з2210098 0.0 103020
09:00−18з239798 0.1 1030126
12:00−12зсз228896 0.0 1030339
15:00−10зюз238698 0.0 1029504
18:00−14ююз239593 0.0 102830
21:00−17ю239447 0.0 102836
12 марта, пт
пт1200:00−18ю36940 0.0 1027111
03:00−19ю37940 0.0 1027141
06:00−20ю39860 0.0 1025201
09:00−17ююв49830 0.0 1024309
12:00−11ююв5108820 0.0 1021474
15:00−8юв6128520 0.0 1018641
18:00−9ююв7158362 0.0 1015758
21:00−9ююв7148981 0.2 1013845